User: anonymous   Login
Location: Unspecified
(0.0000°N, 0.0000°E)
Time: 04:02:32
(UTC+00:00)
Language:

STARLINK-34406 - Orbit

View from above orbital plane
View from above orbital plane
View from above satellite
View from above satellite

Ground track
Ground track

The orbit is defined by the following mean orbital elements,

1 64705U          26145.36298358 +.00000000 +00000-0 +24127-3 0 00006
2 64705  70.0002 121.2201 0004052 264.5326  95.5371 14.98337276    01
Epoch (UTC): 25 May 2026 08:42:41
Eccentricity: 0.0004052
inclination: 70.0002°
perigee height: 569 km
apogee height: 575 km
right ascension of ascending node: 121.2201°
argument of perigee: 264.5326°
revolutions per day: 14.98337276
mean anomaly at epoch: 95.5371°

The dashed part of the orbit path shows where the satellite is in the earth's shadow,  

DLR